CZ-4B DEB

Satellite information

Favourite Embed

Satellite Type and Status

DEBRISIN ORBIT

Key statistics

Satellite CZ-4B DEB at a glance.

Uptime

8516

Days in orbit

Revolutions

≈ 14.0

Per day

Orbit

SSO

Sun Synchronous Orbit

Inclination

99.1

Latest

Satellite identification and parameters

Extended collection of information and parameters for CZ-4B DEB.

Object identification

Identified? True

Debris? True

Object name: CZ-4B DEB

International designator: 2002-024H

Object number (NORAD): 34223

Object ID (CCSDS): 34223

Country: PEOPLES REPUBLIC OF CHINA (PRC)

Current information (Y/N): Y

RCS size: SMALL

Orbital parameters

Period: 102.509 minutes

Inclination: 99.0973 deg

SMA: 7255.511 km

Apoapsis: 971.586 km

Periapsis: 783.166 km

RAAN: 294.654 deg

Eccentricy: 0.0129846

Argument of periapsis: 69.7041 deg

Mean anomaly: 291.8027 deg

Mean motion: 14.04755527 rev/day

Mean motion (dot): 0.0000116 rev/day2

B* drag term: 0.0006967472 1/REarth

Two-line elements (TLE)

Creation date: Sept. 5, 2025, 7:38 p.m.

Reference frame: TEME

Reference center: EARTH

Epoch: Sept. 5, 2025, 9:51 a.m. UTC

TLE line 0: 0 CZ-4B DEB

TLE line 1: 1 34223U 02024H 25248.41042656 .00001160 00000-0 69675-3 0 9995

TLE line 2: 2 34223 99.0973 294.6540 0129846 69.7041 291.8027 14.04755527171356

Live tracking on map

Real-time ground track for satellite CZ-4B DEB.

In-orbit conjunctions

A list of the most updated potential collisions computed for object CZ-4B DEB.

Target Orbit TCA Probability of collision Miss distance Type
COSMOS 1677 LEO 2024-09-08 16:29:23 0.0004381112 683.0 (m) PAYLOAD

Associated space launch

HaiYang abbreviated HY, is a series of marine remote sensing satellites developed and operated by China since 2002. As of June 2020, six satellites were launched and two more are planned. Feng Yun 1D was a polar orbiting meteorological satellite.

CZ-4B DEB was lifted into orbit during the mission ‘Long March 4B | Hai Yang 1 & Feng Yun 1D’, on board a Long March 4B space rocket.

The launch took place on May 15, 2002, 1:50 a.m. from Launch Complex 7.

For more information about the launch, click the button.

Launch to space Long March 4B | Hai Yang 1 & Feng Yun 1D
Long March 4B | Hai Yang 1 & Feng Yun 1D

Agency: N/A

Status: Launch Successful

Launch date: May 15, 2002, 1:50 a.m. UTC

Rocket: Long March 4B

Launch pad: Launch Complex 7

Location: Taiyuan Satellite Launch Center, People's Republic of China

...

Latest news about this satellite

There are no fresh news available about this satellite. Check back as we update our databases every day.


Newsletter sign-up

Weekly statistics, charts and insights to help you stay on top of the space industry.